timestamp,surface_pressure_avg,surface_temp_avg,battery_voltage,lat,long
2019-10-09 00:00:00+00:00,267.7364,9.42,12.81,47.84626,-54.09684
2019-10-09 00:10:00+00:00,260.7565,9.43,12.73,47.84626,-54.09684
2019-10-09 00:20:00+00:00,257.0181,9.44,12.81,47.84626,-54.09684
2019-10-09 00:30:00+00:00,256.1248,9.45,12.81,47.84626,-54.09684
2019-10-09 00:40:00+00:00,250.2631,9.45,12.81,47.84626,-54.09684
2019-10-09 00:50:00+00:00,248.1931,9.45,12.89,47.84626,-54.09684
2019-10-09 01:00:00+00:00,242.2381,9.44,12.81,47.84626,-54.09684
2019-10-09 01:10:00+00:00,235.5964,9.42,12.73,47.84626,-54.09684
2019-10-09 01:20:00+00:00,232.5681,9.43,12.81,47.84626,-54.09684
2019-10-09 01:30:00+00:00,234.7364,9.44,12.81,47.84626,-54.09684
2019-10-09 01:40:00+00:00,234.4281,9.45,12.81,47.84626,-54.09684
2019-10-09 01:50:00+00:00,230.4081,9.44,12.81,47.84626,-54.09684
2019-10-09 02:00:00+00:00,229.0347,9.45,12.81,47.84626,-54.09684
2019-10-09 02:10:00+00:00,229.7864,9.46,12.73,47.84626,-54.09684
2019-10-09 02:20:00+00:00,228.3497,9.46,12.81,47.84626,-54.09684
2019-10-09 02:30:00+00:00,227.028,9.46,12.81,47.84626,-54.09684
2019-10-09 02:40:00+00:00,228.9547,9.47,12.81,47.84626,-54.09684
2019-10-09 02:50:00+00:00,232.1147,9.47,12.81,47.84626,-54.09684
2019-10-09 03:00:00+00:00,228.2397,9.47,12.81,47.84626,-54.09684
2019-10-09 03:10:00+00:00,223.1881,9.45,12.73,47.84626,-54.09684
2019-10-09 03:20:00+00:00,224.1314,9.44,12.81,47.84626,-54.09684
2019-10-09 03:30:00+00:00,227.2097,9.44,12.81,47.84626,-54.09684
2019-10-09 03:40:00+00:00,227.0847,9.43,12.81,47.84626,-54.09684
2019-10-09 03:50:00+00:00,230.5648,9.42,12.81,47.84626,-54.09684
2019-10-09 04:00:00+00:00,235.3548,9.42,12.73,47.84626,-54.09684
2019-10-09 04:10:00+00:00,234.8498,9.42,12.73,47.84626,-54.09684
2019-10-09 04:20:00+00:00,234.3281,9.42,12.81,47.84626,-54.09684
2019-10-09 04:30:00+00:00,237.2747,9.43,12.81,47.84626,-54.09684
2019-10-09 04:40:00+00:00,238.5331,9.43,12.81,47.84626,-54.09684
2019-10-09 04:50:00+00:00,237.8364,9.42,12.81,47.84626,-54.09684
2019-10-09 05:00:00+00:00,241.3181,9.4,12.73,47.84626,-54.09684
2019-10-09 05:10:00+00:00,249.1714,9.41,12.73,47.84626,-54.09684
2019-10-09 05:20:00+00:00,253.6281,9.4,12.81,47.84626,-54.09684
2019-10-09 05:30:00+00:00,254.9181,9.4,12.81,47.84626,-54.09684
2019-10-09 05:40:00+00:00,261.298,9.4,12.81,47.84626,-54.09684
2019-10-09 05:50:00+00:00,272.4497,9.4,12.81,47.84626,-54.09684
2019-10-09 06:00:00+00:00,278.8981,9.4,12.73,47.84626,-54.09684
2019-10-09 06:10:00+00:00,280.7264,9.4,12.73,47.84626,-54.09684
2019-10-09 06:20:00+00:00,283.668,9.4,12.81,47.84626,-54.09684
2019-10-09 06:30:00+00:00,287.8514,9.4,12.81,47.84626,-54.09684
2019-10-09 06:40:00+00:00,290.0613,9.4,12.81,47.84626,-54.09684
2019-10-09 06:50:00+00:00,292.5647,9.4,12.81,47.84626,-54.09684
2019-10-09 07:00:00+00:00,295.8497,9.4,12.73,47.84626,-54.09684
2019-10-09 07:10:00+00:00,300.8547,9.4,12.65,47.84626,-54.09684
2019-10-09 07:20:00+00:00,302.3164,9.4,12.73,47.84626,-54.09684
2019-10-09 07:30:00+00:00,299.9514,9.4,12.81,47.84626,-54.09684
2019-10-09 07:40:00+00:00,300.5163,9.4,12.81,47.84626,-54.09684
2019-10-09 07:50:00+00:00,307.4397,9.4,12.81,47.84626,-54.09684
2019-10-09 08:00:00+00:00,310.1114,9.4,12.73,47.84626,-54.09684
2019-10-09 08:10:00+00:00,305.793,9.4,12.65,47.84626,-54.09684
2019-10-09 08:20:00+00:00,308.3264,9.4,12.73,47.84626,-54.09684
2019-10-09 08:30:00+00:00,317.673,9.4,12.73,47.84626,-54.09684
2019-10-09 08:40:00+00:00,315.313,9.4,12.81,47.84626,-54.09684
2019-10-09 08:50:00+00:00,309.1447,9.4,12.81,47.84626,-54.09684
2019-10-09 09:00:00+00:00,315.8596,9.4,12.73,47.84626,-54.09684
2019-10-09 09:10:00+00:00,321.163,9.4,12.65,47.84626,-54.09684
2019-10-09 09:20:00+00:00,316.8931,9.4,12.73,47.84626,-54.09684
2019-10-09 09:30:00+00:00,310.7097,9.4,12.73,47.84626,-54.09684
2019-10-09 09:40:00+00:00,315.668,9.4,12.81,47.84626,-54.09684
2019-10-09 09:50:00+00:00,311.738,9.4,12.81,47.84626,-54.09684
2019-10-09 10:00:00+00:00,303.5514,9.4,12.73,47.84626,-54.09684
2019-10-09 10:10:00+00:00,301.8281,9.4,12.73,47.84626,-54.09684
2019-10-09 10:20:00+00:00,300.7147,9.4,13.05,47.84626,-54.09684
2019-10-09 10:30:00+00:00,293.7397,9.4,13.37,47.84626,-54.09684
2019-10-09 10:40:00+00:00,288.978,9.4,13.6,47.84626,-54.09684
2019-10-09 10:50:00+00:00,287.183,9.4,13.76,47.84626,-54.09684
2019-10-09 11:00:00+00:00,280.6648,9.4,13.84,47.84626,-54.09684
2019-10-09 11:10:00+00:00,273.7448,9.4,14.0,47.84626,-54.09684
2019-10-09 11:20:00+00:00,273.0197,9.4,14.64,47.84626,-54.09684
2019-10-09 11:30:00+00:00,269.5031,9.4,15.27,47.84626,-54.09684
2019-10-09 11:40:00+00:00,261.5381,9.4,16.07,47.84626,-54.09684
2019-10-09 11:50:00+00:00,258.608,9.4,16.31,47.84626,-54.09684
2019-10-09 12:00:00+00:00,257.5414,9.4,15.51,47.84626,-54.09684
2019-10-09 12:10:00+00:00,253.0214,9.4,15.51,47.84626,-54.09684
2019-10-09 12:20:00+00:00,248.0698,9.4,15.99,47.84626,-54.09684
2019-10-09 12:30:00+00:00,248.7214,9.4,15.27,47.84626,-54.09684
2019-10-09 12:40:00+00:00,248.8697,9.4,15.2,47.84626,-54.09684
2019-10-09 12:50:00+00:00,244.3347,9.4,15.11,47.84626,-54.09684
2019-10-09 13:00:00+00:00,238.0981,9.4,14.96,47.84626,-54.09684
2019-10-09 13:10:00+00:00,238.7065,9.45,14.96,47.84626,-54.09684
2019-10-09 13:20:00+00:00,238.4031,9.48,14.72,47.84626,-54.09684
2019-10-09 13:30:00+00:00,233.9148,9.49,14.96,47.84626,-54.09684
2019-10-09 13:40:00+00:00,227.5314,9.5,14.96,47.84626,-54.09684
2019-10-09 13:50:00+00:00,223.7581,9.5,14.96,47.84626,-54.09684
2019-10-09 14:00:00+00:00,225.9964,9.5,14.8,47.84626,-54.09684
2019-10-09 14:10:00+00:00,222.0798,9.5,14.72,47.84626,-54.09684
2019-10-09 14:20:00+00:00,216.0831,9.5,14.88,47.84626,-54.09684
2019-10-09 14:30:00+00:00,218.3814,9.5,14.8,47.84626,-54.09684
2019-10-09 14:40:00+00:00,221.1931,9.5,14.8,47.84626,-54.09684
2019-10-09 14:50:00+00:00,218.0098,9.53,14.8,47.84626,-54.09684
2019-10-09 15:00:00+00:00,216.8264,9.59,14.64,47.84626,-54.09684
2019-10-09 15:10:00+00:00,218.7415,9.6,14.64,47.84626,-54.09684
2019-10-09 15:20:00+00:00,218.4198,9.6,14.64,47.84626,-54.09684
2019-10-09 15:30:00+00:00,217.6447,9.6,14.64,47.84626,-54.09684
2019-10-09 15:40:00+00:00,220.4947,9.61,14.64,47.84626,-54.09684
2019-10-09 15:50:00+00:00,222.5015,9.65,14.64,47.84626,-54.09684
2019-10-09 16:00:00+00:00,227.0797,9.7,14.56,47.84626,-54.09684
2019-10-09 16:10:00+00:00,231.6264,9.69,14.56,47.84626,-54.09684
2019-10-09 16:20:00+00:00,230.7481,9.7,14.64,47.84626,-54.09684
2019-10-09 16:30:00+00:00,230.9214,9.73,14.56,47.84626,-54.09684
2019-10-09 16:40:00+00:00,238.5464,9.8,14.56,47.84626,-54.09684
2019-10-09 16:50:00+00:00,245.2614,9.8,14.56,47.84626,-54.09684
2019-10-09 17:00:00+00:00,244.3947,9.8,14.48,47.84626,-54.09684
2019-10-09 17:10:00+00:00,242.1931,9.84,14.4,47.84626,-54.09684
2019-10-09 17:20:00+00:00,245.3214,9.88,14.48,47.84626,-54.09684
2019-10-09 17:30:00+00:00,252.8881,9.87,14.48,47.84626,-54.09684
2019-10-09 17:40:00+00:00,255.743,9.8,14.48,47.84626,-54.09684
2019-10-09 17:50:00+00:00,256.4648,9.8,14.48,47.84626,-54.09684
2019-10-09 18:00:00+00:00,261.4281,9.8,14.32,47.84626,-54.09684
2019-10-09 18:10:00+00:00,270.4398,9.8,14.24,47.84626,-54.09684
2019-10-09 18:20:00+00:00,275.8531,9.8,14.32,47.84626,-54.09684
2019-10-09 18:30:00+00:00,282.1547,9.8,14.32,47.84626,-54.09684
2019-10-09 18:40:00+00:00,288.1797,9.79,14.32,47.84626,-54.09684
2019-10-09 18:50:00+00:00,291.8414,9.8,14.24,47.84626,-54.09684
2019-10-09 19:00:00+00:00,298.4681,9.8,14.08,47.84626,-54.09684
2019-10-09 19:10:00+00:00,306.708,9.8,14.0,47.84626,-54.09684
2019-10-09 19:20:00+00:00,311.4163,9.8,14.0,47.84626,-54.09684
2019-10-09 19:30:00+00:00,313.2247,9.8,14.0,47.84626,-54.09684
2019-10-09 19:40:00+00:00,318.9446,9.8,13.92,47.84626,-54.09684
2019-10-09 19:50:00+00:00,322.9564,9.8,13.92,47.84626,-54.09684
2019-10-09 20:00:00+00:00,322.3896,9.8,13.84,47.84626,-54.09684
2019-10-09 20:10:00+00:00,325.9581,9.8,13.68,47.84626,-54.09684
2019-10-09 20:20:00+00:00,328.3879,9.8,13.68,47.84626,-54.09684
2019-10-09 20:30:00+00:00,329.8696,9.8,13.6,47.84626,-54.09684
2019-10-09 20:40:00+00:00,332.1063,9.8,13.6,47.84626,-54.09684
2019-10-09 20:50:00+00:00,336.2014,9.79,13.53,47.84626,-54.09684
2019-10-09 21:00:00+00:00,339.7012,9.77,13.44,47.84626,-54.09684
2019-10-09 21:10:00+00:00,338.8213,9.78,13.29,47.84626,-54.09684
2019-10-09 21:20:00+00:00,338.3413,9.74,13.29,47.84626,-54.09684
2019-10-09 21:30:00+00:00,340.9313,9.7,13.21,47.84626,-54.09684
2019-10-09 21:40:00+00:00,341.0396,9.7,13.21,47.84626,-54.09684
2019-10-09 21:50:00+00:00,337.5497,9.7,13.21,47.84626,-54.09684
2019-10-09 22:00:00+00:00,334.1129,9.69,13.05,47.84626,-54.09684
2019-10-09 22:10:00+00:00,335.353,9.69,12.97,47.84626,-54.09684
2019-10-09 22:20:00+00:00,332.3698,9.68,12.97,47.84626,-54.09684
2019-10-09 22:30:00+00:00,330.2596,9.67,12.97,47.84626,-54.09684
2019-10-09 22:40:00+00:00,330.303,9.66,13.05,47.84626,-54.09684
2019-10-09 22:50:00+00:00,325.168,9.68,13.05,47.84626,-54.09684
2019-10-09 23:00:00+00:00,315.5214,9.68,12.97,47.84626,-54.09684
2019-10-09 23:10:00+00:00,308.7864,9.66,12.89,47.84626,-54.09684
2019-10-09 23:20:00+00:00,308.4163,9.66,12.97,47.84626,-54.09684
2019-10-09 23:30:00+00:00,302.1764,9.68,12.97,47.84626,-54.09684
2019-10-09 23:40:00+00:00,289.893,9.68,12.97,47.84626,-54.09684
2019-10-09 23:50:00+00:00,283.1897,9.69,12.97,47.84626,-54.09684
